sat.trackr.live / text

‹ back to catalog

STARLINK-36520

NORAD 67466 · 2026-008X

PAYLOAD ACTIVE UNKNOWN

§ Identity

Operator
Country
US
Launch date
2026-01-14
Launch site
AFETR
Launch vehicle
Mass (kg)
RCS (m²)

Purposes: comms

External: N2YO · Heavens-Above · Gunter

§ Orbital elements

Epoch: 2026-05-24T23:10:34.389984Z

Period
94.27 min
Inclination
43.0030°
Eccentricity
0.0001362
Mean motion
15.27594625 rev/d
Perigee alt
482.1 km
Apogee alt
483.9 km
Semi-major
6,861.1 km
B*
5.5852e-4
RAAN
134.8062°
Arg perigee
289.0278°
Mean anomaly
71.0426°
Rev number
2,123

§ Raw data

STARLINK-365201 67466U 26008X   26144.96567581  .00015145  00000+0  55852-3 0  99922 67466  43.0030 134.8062 0001362 289.0278  71.0426 15.27594625 21237

JSON: /api/v1/satellites/67466 · /tle

For live sub-satellite position, see the globe view (requires WebGL).

§ Visibility from observer

Set your observer location to see the next 7 days of passes ≥ 10°. The values pass through the URL so the page stays shareable.

No JS? Fill the form by hand. The geolocation button needs JavaScript.